星链-1227 (STARLINK-1227 )

导读 | 星芒AI

STARLINK-1227 是 SpaceX 星链计划中的一颗低轨通信卫星,属于第 12 批部署的星链卫星群。该卫星于 2020 年 11 月发射,运行在约 550 公里的轨道高度,旨在为全球用户提供高速互联网服务。作为星链星座的一部分,STARLINK-1227 采用先进推进系统,具备自主变轨和避障能力,有助于提升网络稳定性和覆盖范围。

基本信息
目录编号:
45230
目录名称:
STARLINK-1227
国际标识:
2020-012BE
轨道中心:
EARTH
卫星名称:
星链-1227
卫星全名:
星链-1227 (STARLINK-1227 )
卫星状态:
在轨 (已飞行2128 天)
发射日期:
2020-02-17 UTC
国别 :
美国 (US)
星等 :
--
轨道信息
数据来源 国际轨道数据
星历时间: 2025-12-14T18:33:35+0800
1天前
查看轨道信息
半长轴: 6925.421km
偏心率: 0.000137
轨道倾角: 53.057°
近地点辐角 93.805°
升交点赤经 29.319°
平近点角 266.310°
近地点: 546.337km
远地点: 548.235km
周期: 95.594分钟
每日圈数: 15.063766
详细信息
固有亮度:
5
最大亮度:
2.5
卫星平台:
Starlink V1.0
覆盖范围:
全球
运营商:
太空探索技术公司
运营商所在国:
美国
制造商(研发单位):
太空探索技术公司
制造商所在国:
美国
使用方式:
暂无
卫星简介
星链(Starlink)计划是由太空探索技术公司(SpaceX)提出的一个巨型低轨卫星互联网星座项目,计划在2019年至2024年间在太空搭建由约1.2万颗卫星组成的“星链”网络,其中1584颗将部署在地球上空550千米处的近地轨道,并从2020年开始工作。该卫星仍在工作。
2D轨道图
3D轨道图
轨道高度分析图
轨道倾角分析图
轨道综合分析图
查看轨道综合分析图